Skip Page Navigation
NASA JPL Caltech
NASA Logo - Jet Propulsion Laboratory + View the NASA Portal
+ Near-Earth Object (NEO) Program
Search JPL
JPL Home Earth Solar System Stars & Galaxies Technology
JPL Solar System Dynamics
BODIES ORBITS EPHEMERIDES TOOLS PHYSICAL DATA DISCOVERY FAQ SITE MAP
JPL Small-Body Database Browser
Search: [ help ]  
30808 (1989 YA2)
Classification: Main-belt Asteroid          SPK-ID: 2030808
Ephemeris | Orbit Diagram | Orbital Elements | Physical Parameters | Discovery Circumstances | Close-Approach Data ]

[ show orbit diagram ]
Orbital Elements at Epoch 2457400.5 (2016-Jan-13.0) TDB
Reference: JPL 15 (heliocentric ecliptic J2000)
 Element Value Uncertainty (1-sigma)   Units 
e .1813179414561719 8.9772e-08  
a 2.527698544478685 1.4346e-08 au
q 2.069381447772048 2.2743e-07 au
i 5.330866030119104 8.9594e-06 deg
node 279.9299862001238 5.634e-05 deg
peri 201.0127330149228 5.897e-05 deg
M 167.1087806589577 1.7896e-05 deg
tp 2456719.129833963987
(2014-Mar-02.62983396)
6.9491e-05 JED
period 1467.865774651117
4.02
1.2496e-05
3.421e-08
d
yr
n .2452540322261856 2.0879e-09 deg/d
Q 2.986015641185322 1.6947e-08 au
  Orbit Determination Parameters
   # obs. used (total)      853  
   data-arc span      12785 days (35.00 yr)  
   first obs. used      1980-08-06  
   last obs. used      2015-08-08  
   planetary ephem.      DE431  
   SB-pert. ephem.      SB431-BIG16  
   condition code      0  
   fit RMS      .55079  
   data source      ORB  
   producer      Otto Matic  
   solution date      2015-Sep-02 15:18:19  

Additional Information
 Earth MOID = 1.08634 au 
 Jupiter MOID = 2.11927 au 
 T_jup = 3.423 
[ show covariance matrix ]

Ephemeris | Orbit Diagram | Orbital Elements | Physical Parameters | Discovery Circumstances | Close-Approach Data ]

Physical Parameter Table
Parameter Symbol Value Units Sigma Reference Notes
absolute magnitude H 14.1 mag n/a MPO337515  

30808 (1989 YA2)          Discovered 1989-Dec-30 by McNaught, R. H. at Siding Spring
Reference: 20011130/Numbers.arcLast Updated: 2004-04-19

[ show close-approach data ]
Alternate Designations
 1989 YA2 = 1980 PZ1 
Ephemeris | Orbit Diagram | Orbital Elements | Physical Parameters | Discovery Circumstances | Close-Approach Data ]
ABOUT SSD CREDITS/AWARDS PRIVACY/COPYRIGHT GLOSSARY LINKS
FirstGov 2016-Feb-06 02:48 UT
(server date/time)  
NASA Home Page
Site Manager:   Ryan S. Park
Webmaster  Alan B. Chamberlin